Location: Newark
(6.1731°S, 35.7419°E)
Time: 22:20:32
(UTC+00:00)

Vanguard 3 - Visible Passes

Search period start: 17 February 2020 00:00
Search period end: 27 February 2020 00:00
Orbit: 508 x 3263 km, 33.3° (Epoch: 17 February)

Date Brightness Start Highest point End Pass type
(mag) Time Alt. Az. Time Alt. Az. Time Alt. Az.
17 Feb 8.6 02:54:38 10° SSW 02:57:47 21° SSE 03:00:39 10° E visible
17 Feb 10.0 16:18:32 10° NW 16:38:30 75° NE 16:55:14 10° ESE visible
17 Feb 10.2 18:36:46 10° WNW 18:55:19 51° SW 19:04:28 24° SSE visible
17 Feb 10.8 21:02:29 10° WSW 21:09:06 18° SW 21:09:06 18° SW visible
18 Feb 9.5 01:42:22 10° S 01:43:28 11° SSE 01:44:31 10° SSE visible
18 Feb 10.1 17:18:18 10° WNW 17:38:28 73° SW 17:53:55 10° SE visible
18 Feb 10.4 19:40:21 10° W 19:55:09 31° SSW 20:00:03 25° S visible
19 Feb 8.0 02:38:09 10° SW 02:42:07 31° SSE 02:45:26 10° E visible
19 Feb 10.1 16:01:26 10° NW 16:21:09 83° NE 16:38:48 10° ESE visible
19 Feb 10.4 18:19:54 10° W 18:38:23 46° SSW 18:50:49 13° SE visible
19 Feb 10.8 20:46:04 10° WSW 20:55:26 18° SSW 20:55:26 18° SSW visible
20 Feb 9.2 01:27:12 16° S 01:27:54 16° SSE 01:30:39 10° ESE visible
20 Feb 10.3 17:01:22 10° WNW 17:21:13 66° SW 17:37:28 10° SE visible
20 Feb 10.6 19:23:49 10° W 19:38:41 29° SSW 19:46:02 19° SSE visible
21 Feb 7.2 02:22:53 16° SW 02:26:27 48° SSE 02:30:03 10° ENE visible
21 Feb 10.2 15:44:32 10° NW 16:03:45 90° SSW 16:22:13 10° SE visible
21 Feb 10.6 18:03:13 10° W 18:21:28 43° SSW 18:35:31 10° SE visible
21 Feb 10.8 20:29:36 10° WSW 20:39:35 19° SSW 20:41:05 18° S visible
22 Feb 9.1 01:13:57 20° SE 01:13:57 20° SE 01:15:55 10° ESE visible
22 Feb 7.0 03:20:19 10° WSW 03:24:10 33° NW 03:27:31 10° NNE visible
22 Feb 10.5 16:44:36 10° WNW 17:03:59 61° SW 17:20:55 10° SE visible
22 Feb 10.8 19:07:22 10° WSW 19:22:15 28° SSW 19:31:24 15° SSE visible
22 Feb 11.1 21:34:41 10° SW 21:35:58 11° SSW 21:35:58 11° SSW visible
23 Feb 6.6 02:09:38 50° SW 02:10:45 74° SSE 02:14:34 10° ENE visible
23 Feb 10.8 17:46:41 10° W 18:04:36 40° SSW 18:19:08 10° SE visible
23 Feb 10.8 20:13:01 10° SW 20:23:38 19° SSW 20:26:10 18° S visible
24 Feb 9.7 01:00:38 12° E 01:00:38 12° E 01:00:53 10° E visible
24 Feb 7.6 03:05:16 12° W 03:08:19 24° NW 03:11:22 10° NNE visible
24 Feb 10.7 16:28:02 10° WNW 16:46:47 55° SSW 17:04:16 10° SE visible
24 Feb 10.9 18:51:00 10° WSW 19:05:53 27° SSW 19:16:15 13° SSE visible
24 Feb 11.0 21:17:18 10° SW 21:20:48 14° SSW 21:20:48 14° SSW visible
25 Feb 7.3 01:56:13 46° NE 01:56:13 46° NE 01:58:58 10° NE visible
25 Feb 11.0 17:30:19 10° W 17:47:49 37° SSW 18:02:44 10° SE visible
25 Feb 10.8 19:56:21 10° SW 20:07:43 20° S 20:10:48 19° S visible
26 Feb 8.1 02:51:44 17° NW 02:52:23 18° NW 02:55:06 10° N visible
26 Feb 10.8 16:11:39 10° W 16:29:40 50° SSW 16:47:30 10° SE visible
26 Feb 10.9 18:34:41 10° WSW 18:49:35 26° SSW 19:00:44 12° SSE visible
26 Feb 10.9 20:59:52 10° SW 21:05:16 17° SSW 21:05:16 17° SSW visible
